This demonstration page uses our WeatherBlox Daily Observations layout. Learn more.

38.88101, -77.10428

Hourly Observations for June 13, 2017

Temp ( °F °C ) Dew Point ( °F °C ) Humidity (%) Winds ( mph kmh ) Pressure ( in mb ) Visibility ( mi km ) Precip ( " mm )
12:52 am 00:52 Mostly Cloudy 78 25.6 73 22.8 85 85 S 6 9 30.01 1016 10 16.0934 0 0
1:52 am 01:52 Mostly Cloudy 78 25.6 73 22.8 85 85 S 7 11 30.01 1016 10 16.0934 0 0
2:52 am 02:52 Cloudy 77 25 72 22.2 85 85 S 6 9 30.01 1016 10 16.0934 0 0
3:52 am 03:52 Cloudy 77 25 72 22.2 85 85 S 6 9 30.01 1016 10 16.0934 0 0
4:52 am 04:52 Mostly Cloudy 76 24.4 72 22.2 88 88 SSW 6 9 30.01 1016 10 16.0934 0 0
5:52 am 05:52 Partly Cloudy 75 23.9 71 21.7 88 88 SSW 5 7 30.01 1016 10 16.0934 0 0
6:52 am 06:52 Partly Cloudy 76 24.4 70 21.1 82 82 SW 6 9 30.02 1017 10 16.0934 0 0
7:52 am 07:52 Partly Cloudy 78 25.6 73 22.8 85 85 S 7 11 30.02 1017 10 16.0934 0 0
8:52 am 08:52 Partly Cloudy 81 27.2 72 22.2 74 74 S 7 11 30.02 1017 10 16.0934 0 0
9:52 am 09:52 Partly Cloudy 85 29.4 72 22.2 65 65 SE 6 9 30.01 1016 10 16.0934 0 0
10:52 am 10:52 Partly Cloudy 91 32.8 70 21.1 50 50 N 9 15 30 1016 10 16.0934 0 0
11:52 am 11:52 Partly Cloudy 92 33.3 68 20 46 46 N 7 11 29.99 1016 10 16.0934 0 0
12:52 pm 12:52 Mostly Cloudy 91 32.8 68 20 47 47 SE 6 9 29.97 1015 10 16.0934 0 0
1:52 pm 13:52 Mostly Cloudy 93 33.9 67 19.4 42 42 VRB 3 6 29.95 1014 10 16.0934 0 0
2:52 pm 14:52 Mostly Cloudy 94 34.4 69 20.6 44 44 SSE 7 11 29.93 1013 10 16.0934 0 0
3:52 pm 15:52 Mostly Cloudy 92 33.3 72 22.2 52 52 S 10 17 29.91 1013 10 16.0934 0 0
4:52 pm 16:52 Mostly Cloudy 90 32.2 72 22.2 56 56 S 13 20 29.89 1012 10 16.0934 0 0
5:52 pm 17:52 Mostly Cloudy 90 32.2 73 22.8 58 58 S 14 22 29.88 1012 10 16.0934 0 0
6:52 pm 18:52 Mostly Cloudy 91 32.8 70 21.1 50 50 SSW 14 22 29.89 1012 10 16.0934 0 0
7:52 pm 19:52 Partly Cloudy 89 31.7 71 21.7 55 55 SSW 13 20 29.89 1012 10 16.0934 0 0
8:52 pm 20:52 Partly Cloudy 88 31.1 71 21.7 57 57 SW 13 20 29.91 1013 10 16.0934 0 0
9:52 pm 21:52 Mostly Cloudy 86 30 73 22.8 65 65 SSW 8 13 29.91 1013 10 16.0934 0 0
10:52 pm 22:52 Mostly Cloudy 84 28.9 73 22.8 70 70 SW 7 11 29.91 1013 10 16.0934 0 0
11:52 pm 23:52 Clear 81 27.2 75 23.9 82 82 SSW 6 9 29.91 1013 10 16.0934 0 0

Powered by AerisWeather